VK6JI-11 Weather Reports


time (UTC)temp
C
wind
direction
speed
KPH
gust
KPH
rain 1hr
cm
rain 24hr
cm
rain mn
cm
humidity
%
barometer
mb
20260505225958 12 45 0.0 3.2 0.00 0.00 0.00 82 1027.3
20260505225757 12 45 0.0 3.2 0.00 0.00 0.00 82 1027.3
20260505225557 12 45 0.0 4.8 0.00 0.00 0.00 82 1027.2
20260505225356 12 44 0.0 4.8 0.00 0.00 0.00 82 1027.2
20260505225156 12 44 0.0 4.8 0.00 0.00 0.00 82 1027.1
20260505224955 12 44 0.0 4.8 0.00 0.00 0.00 82 1027.2
20260505224755 12 44 1.6 4.8 0.00 0.00 0.00 82 1027.1
20260505224555 12 45 0.0 4.8 0.00 0.00 0.00 82 1027.0
20260505224355 12 44 0.0 6.4 0.00 0.00 0.00 82 1027.1
20260505224153 12 44 0.0 6.4 0.00 0.00 0.00 82 1027.1
20260505223951 12 49 0.0 6.4 0.00 0.00 0.00 82 1027.1
20260505223750 12 49 1.6 6.4 0.00 0.00 0.00 82 1027.2
20260505223550 12 103 0.0 3.2 0.00 0.00 0.00 81 1027.1
20260505223350 12 103 0.0 3.2 0.00 0.00 0.00 81 1027.1
20260505223149 12 103 0.0 1.6 0.00 0.00 0.00 81 1027.1
20260505222948 12 103 0.0 3.2 0.00 0.00 0.00 81 1027.1
20260505222749 12 103 0.0 3.2 0.00 0.00 0.00 81 1027.0
20260505222548 12 103 0.0 4.8 0.00 0.00 0.00 81 1027.0
20260505222347 12 103 0.0 4.8 0.00 0.00 0.00 81 1027.0
20260505222147 12 103 0.0 4.8 0.00 0.00 0.00 81 1026.9
20260505221947 12 103 1.6 4.8 0.00 0.00 0.00 81 1027.0
20260505221746 12 104 0.0 4.8 0.00 0.00 0.00 81 1026.9
20260505221546 12 104 0.0 4.8 0.00 0.00 0.00 81 1026.9
20260505221345 12 104 0.0 4.8 0.00 0.00 0.00 81 1027.0
20260505221145 12 104 1.6 4.8 0.00 0.00 0.00 81 1026.8
20260505220944 12 104 1.6 3.2 0.00 0.00 0.00 81 1026.9
20260505220743 12 104 1.6 4.8 0.00 0.00 0.00 81 1026.8
20260505220543 12 104 0.0 4.8 0.00 0.00 0.00 81 1026.9
20260505220342 12 104 1.6 4.8 0.00 0.00 0.00 81 1026.9
20260505220141 12 104 0.0 4.8 0.00 0.00 0.00 81 1026.8
20260505215936 12 104 1.6 4.8 0.00 0.00 0.00 81 1026.9
20260505215736 12 106 1.6 3.2 0.00 0.00 0.00 80 1026.8
20260505215536 12 107 0.0 3.2 0.00 0.00 0.00 80 1026.8
20260505215336 12 106 0.0 4.8 0.00 0.00 0.00 80 1026.8
20260505215136 12 106 0.0 4.8 0.00 0.00 0.00 80 1026.8
20260505214936 12 106 1.6 4.8 0.00 0.00 0.00 80 1026.7
20260505214736 12 106 1.6 4.8 0.00 0.00 0.00 80 1026.8
20260505214535 12 106 3.2 4.8 0.00 0.00 0.00 80 1026.8
20260505214335 12 107 1.6 4.8 0.00 0.00 0.00 80 1026.8
20260505214136 12 107 1.6 4.8 0.00 0.00 0.00 80 1026.8
20260505213935 12 107 0.0 6.4 0.00 0.00 0.00 80 1026.8
20260505213735 12 107 3.2 6.4 0.00 0.00 0.00 80 1026.7
20260505213536 12 107 1.6 6.4 0.00 0.00 0.00 80 1026.7
20260505213337 12 62 3.2 6.4 0.00 0.00 0.00 80 1026.6
20260505213135 12 61 3.2 6.4 0.00 0.00 0.00 80 1026.6
20260505212936 12 87 1.6 6.4 0.00 0.00 0.00 80 1026.6
20260505212735 12 87 1.6 6.4 0.00 0.00 0.00 80 1026.5
20260505212534 12 66 3.2 6.4 0.00 0.00 0.00 80 1026.5
20260505212335 12 103 1.6 6.4 0.00 0.00 0.00 80 1026.5
20260505212135 12 103 1.6 6.4 0.00 0.00 0.00 80 1026.5
20260505211936 12 103 1.6 4.8 0.00 0.00 0.00 80 1026.5
20260505211734 12 103 1.6 4.8 0.00 0.00 0.00 80 1026.5
20260505211534 12 103 1.6 4.8 0.00 0.00 0.00 80 1026.5
20260505211334 13 103 3.2 4.8 0.00 0.00 0.00 80 1026.5
20260505211135 13 103 3.2 4.8 0.00 0.00 0.00 80 1026.6
20260505210934 13 103 1.6 4.8 0.00 0.00 0.00 80 1026.5
20260505210734 13 103 1.6 4.8 0.00 0.00 0.00 80 1026.5
20260505210538 13 104 1.6 4.8 0.00 0.00 0.00 80 1026.5
20260505210334 13 113 1.6 9.7 0.00 0.00 0.00 79 1026.5
20260505210137 13 25 1.6 9.7 0.00 0.00 0.00 79 1026.4
20260505205934 13 25 1.6 9.7 0.00 0.00 0.00 79 1026.4
20260505205734 13 25 1.6 9.7 0.00 0.00 0.00 79 1026.4
20260505205534 13 25 3.2 9.7 0.00 0.00 0.00 80 1026.4
20260505205333 13 106 1.6 4.8 0.00 0.00 0.00 79 1026.5
20260505205133 13 106 3.2 4.8 0.00 0.00 0.00 80 1026.4
20260505204929 13 106 1.6 6.4 0.00 0.00 0.00 80 1026.4
20260505204706 13 107 0.0 6.4 0.00 0.00 0.00 80 1026.4
20260505204505 13 107 1.6 6.4 0.00 0.00 0.00 79 1026.4
20260505204305 13 107 3.2 6.4 0.00 0.00 0.00 79 1026.3
20260505204106 13 107 1.6 4.8 0.00 0.00 0.00 79 1026.3
20260505203904 13 96 1.6 6.4 0.00 0.00 0.00 79 1026.4
20260505203705 13 96 0.0 6.4 0.00 0.00 0.00 79 1026.3
20260505203507 13 96 1.6 6.4 0.00 0.00 0.00 79 1026.3
20260505203306 13 96 1.6 8.0 0.00 0.00 0.00 79 1026.3
20260505203105 13 96 3.2 8.0 0.00 0.00 0.00 79 1026.3
20260505202905 13 79 1.6 8.0 0.00 0.00 0.00 79 1026.2
20260505202705 13 77 1.6 8.0 0.00 0.00 0.00 79 1026.3
20260505202505 13 77 1.6 8.0 0.00 0.00 0.00 79 1026.2
20260505202306 13 124 1.6 4.8 0.00 0.00 0.00 79 1026.2
20260505202104 13 124 1.6 4.8 0.00 0.00 0.00 79 1026.2
20260505201904 13 124 1.6 4.8 0.00 0.00 0.00 79 1026.1
20260505201702 13 125 1.6 4.8 0.00 0.00 0.00 79 1026.2
20260505201455 13 125 1.6 4.8 0.00 0.00 0.00 79 1026.2
20260505201255 13 125 0.0 4.8 0.00 0.00 0.00 79 1026.2
20260505201055 13 125 1.6 4.8 0.00 0.00 0.00 79 1026.1
20260505200854 13 125 1.6 4.8 0.00 0.00 0.00 79 1026.1
20260505200655 13 134 0.0 4.8 0.00 0.00 0.00 79 1026.1
20260505200454 13 134 1.6 4.8 0.00 0.00 0.00 79 1026.1
20260505200254 13 134 1.6 4.8 0.00 0.00 0.00 79 1026.0
20260505200053 13 135 0.0 4.8 0.00 0.00 0.00 79 1026.1
20260505195852 13 135 0.0 4.8 0.00 0.00 0.00 79 1026.2
20260505195651 13 135 1.6 4.8 0.00 0.00 0.00 79 1026.1
20260505195451 13 137 0.0 4.8 0.00 0.00 0.00 79 1026.1
20260505195251 13 137 0.0 4.8 0.00 0.00 0.00 79 1026.1
20260505195051 13 137 0.0 4.8 0.00 0.00 0.00 79 1026.1
20260505194850 13 137 0.0 4.8 0.00 0.00 0.00 78 1026.1
20260505194649 13 137 1.6 3.2 0.00 0.00 0.00 78 1026.1
20260505194449 13 138 0.0 3.2 0.00 0.00 0.00 78 1026.2
20260505194248 13 138 0.0 3.2 0.00 0.00 0.00 78 1026.1
20260505194049 13 138 0.0 3.2 0.00 0.00 0.00 78 1026.1
20260505193844 13 138 0.0 3.2 0.00 0.00 0.00 78 1026.2
20260505193645 13 138 0.0 3.2 0.00 0.00 0.00 78 1026.2
20260505193444 13 138 0.0 3.2 0.00 0.00 0.00 78 1026.1
20260505193243 13 138 0.0 3.2 0.00 0.00 0.00 78 1026.2
20260505193044 13 138 0.0 3.2 0.00 0.00 0.00 78 1026.2
20260505192843 13 138 0.0 3.2 0.00 0.00 0.00 78 1026.2
20260505192642 13 138 1.6 3.2 0.00 0.00 0.00 78 1026.2
20260505192442 13 138 1.6 3.2 0.00 0.00 0.00 78 1026.1
20260505192241 13 166 0.0 3.2 0.00 0.00 0.00 78 1026.2
20260505192041 13 166 0.0 3.2 0.00 0.00 0.00 77 1026.2
20260505191841 13 166 0.0 3.2 0.00 0.00 0.00 77 1026.2
20260505191641 13 168 0.0 3.2 0.00 0.00 0.00 77 1026.2
20260505191440 13 168 1.6 3.2 0.00 0.00 0.00 77 1026.2
20260505191239 13 134 0.0 3.2 0.00 0.00 0.00 77 1026.1
20260505191039 13 134 0.0 3.2 0.00 0.00 0.00 76 1026.1
20260505190839 13 134 0.0 4.8 0.00 0.00 0.00 76 1026.1
20260505190638 13 134 0.0 4.8 0.00 0.00 0.00 76 1026.1
20260505190437 13 134 0.0 4.8 0.00 0.00 0.00 76 1026.1
20260505190237 13 134 0.0 4.8 0.00 0.00 0.00 76 1026.0
20260505190037 13 134 0.0 4.8 0.00 0.00 0.00 76 1026.0
20260505185805 13 134 0.0 3.2 0.00 0.00 0.00 76 1026.0
20260505185605 13 134 0.0 3.2 0.00 0.00 0.00 76 1026.0
20260505185405 13 134 0.0 3.2 0.00 0.00 0.00 76 1026.0
20260505185205 13 134 0.0 3.2 0.00 0.00 0.00 75 1026.0
20260505185006 13 134 0.0 3.2 0.00 0.00 0.00 76 1026.0
20260505184804 13 134 0.0 3.2 0.00 0.00 0.00 75 1026.0
20260505184605 13 134 0.0 3.2 0.00 0.00 0.00 75 1026.0
20260505184405 13 134 0.0 3.2 0.00 0.00 0.00 75 1026.1
20260505184205 13 134 0.0 3.2 0.00 0.00 0.00 75 1026.1
20260505184006 13 134 1.6 3.2 0.00 0.00 0.00 75 1026.1
20260505183807 13 134 1.6 4.8 0.00 0.00 0.00 75 1026.1
20260505183605 13 137 1.6 4.8 0.00 0.00 0.00 75 1026.1
20260505183405 13 135 1.6 4.8 0.00 0.00 0.00 74 1026.1
20260505183204 13 135 0.0 4.8 0.00 0.00 0.00 74 1026.2
20260505183005 13 135 1.6 4.8 0.00 0.00 0.00 74 1026.2
20260505182805 13 135 0.0 3.2 0.00 0.00 0.00 74 1026.2
20260505182604 14 135 0.0 3.2 0.00 0.00 0.00 74 1026.2
20260505182405 14 135 0.0 3.2 0.00 0.00 0.00 74 1026.3
20260505182142 14 135 0.0 3.2 0.00 0.00 0.00 74 1026.3
20260505181941 14 135 0.0 3.2 0.00 0.00 0.00 74 1026.2
20260505181740 14 135 0.0 3.2 0.00 0.00 0.00 74 1026.2
20260505181541 14 135 0.0 3.2 0.00 0.00 0.00 74 1026.2
20260505181339 14 135 1.6 6.4 0.00 0.00 0.00 74 1026.1
20260505181140 14 135 1.6 6.4 0.00 0.00 0.00 74 1026.2
20260505180935 14 84 1.6 6.4 0.00 0.00 0.00 74 1026.2
20260505180736 14 86 1.6 6.4 0.00 0.00 0.00 74 1026.1
20260505180535 14 76 1.6 6.4 0.00 0.00 0.00 74 1026.2
20260505180335 14 75 3.2 4.8 0.00 0.00 0.00 74 1026.1
20260505180133 14 44 1.6 3.2 0.00 0.00 0.00 74 1026.1
20260505175935 14 32 0.0 14.5 0.00 0.00 0.00 74 1026.2
20260505175734 14 32 1.6 14.5 0.00 0.00 0.00 74 1026.1
20260505175533 14 32 0.0 14.5 0.00 0.00 0.00 74 1026.1
20260505175330 14 32 1.6 14.5 0.00 0.00 0.00 74 1026.1
20260505175129 14 32 3.2 14.5 0.00 0.00 0.00 74 1026.1
20260505174929 14 130 1.6 4.8 0.00 0.00 0.00 74 1026.1
20260505174729 14 130 3.2 4.8 0.00 0.00 0.00 74 1026.0
20260505174529 14 73 3.2 4.8 0.00 0.00 0.00 75 1026.0
20260505174329 14 70 1.6 4.8 0.00 0.00 0.00 75 1026.0
20260505174129 14 70 3.2 4.8 0.00 0.00 0.00 75 1026.0
20260505173929 14 70 1.6 4.8 0.00 0.00 0.00 75 1026.0
20260505173729 13 70 1.6 4.8 0.00 0.00 0.00 75 1025.9
20260505173529 13 70 1.6 4.8 0.00 0.00 0.00 76 1025.9
20260505173329 13 65 1.6 8.0 0.00 0.00 0.00 76 1026.0
20260505173129 13 65 3.2 8.0 0.00 0.00 0.00 76 1026.0
20260505172928 13 63 3.2 8.0 0.00 0.00 0.00 77 1026.0
20260505172729 13 114 3.2 8.0 0.00 0.00 0.00 77 1026.0
20260505172527 13 120 3.2 8.0 0.00 0.00 0.00 77 1025.9
20260505172328 13 87 1.6 6.4 0.00 0.00 0.00 78 1025.9
20260505172127 13 86 1.6 6.4 0.00 0.00 0.00 78 1025.9
20260505171927 13 87 3.2 6.4 0.00 0.00 0.00 78 1025.9
20260505171727 13 72 1.6 6.4 0.00 0.00 0.00 78 1025.9
20260505171527 13 63 0.0 4.8 0.00 0.00 0.00 78 1025.9
20260505171328 13 62 0.0 4.8 0.00 0.00 0.00 78 1025.9
20260505171129 13 62 1.6 4.8 0.00 0.00 0.00 78 1025.9
20260505170928 13 61 1.6 4.8 0.00 0.00 0.00 78 1025.8
20260505170728 13 100 0.0 3.2 0.00 0.00 0.00 79 1025.9
20260505170528 13 135 0.0 0.0 0.00 0.00 0.00 79 1025.9
20260505170328 12 135 0.0 0.0 0.00 0.00 0.00 79 1025.9
20260505170129 12 137 0.0 0.0 0.00 0.00 0.00 79 1025.9
20260505165928 12 137 0.0 0.0 0.00 0.00 0.00 79 1025.9
20260505165730 12 137 0.0 0.0 0.00 0.00 0.00 79 1025.8
20260505165528 12 137 0.0 0.0 0.00 0.00 0.00 79 1025.9
20260505165328 12 137 0.0 0.0 0.00 0.00 0.00 79 1025.9
20260505165128 12 137 0.0 0.0 0.00 0.00 0.00 78 1025.9
20260505164927 12 137 0.0 0.0 0.00 0.00 0.00 78 1025.8
20260505164727 12 137 0.0 0.0 0.00 0.00 0.00 78 1025.9
20260505164529 12 137 0.0 0.0 0.00 0.00 0.00 78 1025.9
20260505164329 12 137 0.0 0.0 0.00 0.00 0.00 78 1025.9
20260505164128 12 137 0.0 0.0 0.00 0.00 0.00 78 1025.8
20260505163928 12 137 0.0 0.0 0.00 0.00 0.00 79 1025.9
20260505163727 12 137 0.0 0.0 0.00 0.00 0.00 78 1025.8
20260505163527 12 137 0.0 0.0 0.00 0.00 0.00 78 1025.8
20260505163327 12 137 0.0 0.0 0.00 0.00 0.00 78 1025.8
20260505163128 12 137 0.0 0.0 0.00 0.00 0.00 79 1025.8
20260505162929 12 137 0.0 0.0 0.00 0.00 0.00 79 1025.8
20260505162727 12 137 0.0 0.0 0.00 0.00 0.00 79 1025.8
20260505162526 12 137 0.0 0.0 0.00 0.00 0.00 79 1025.8
20260505162327 12 137 0.0 0.0 0.00 0.00 0.00 79 1025.8
20260505162127 12 137 0.0 0.0 0.00 0.00 0.00 79 1025.7
20260505161927 12 137 0.0 0.0 0.00 0.00 0.00 79 1025.7
20260505161727 12 137 0.0 0.0 0.00 0.00 0.00 79 1025.6
20260505161528 12 137 0.0 0.0 0.00 0.00 0.00 80 1025.6
20260505161327 12 137 0.0 0.0 0.00 0.00 0.00 80 1025.6
20260505161128 -17 0.0 0.0 0.00 0.00 0.00 1025.6
20260505160928 -17 0.0 0.0 0.00 0.00 0.00 1025.6
20260505160725 -17 0.0 0.0 0.00 0.00 0.00 1025.5
20260505160527 -17 0.0 0.0 0.00 0.00 0.00 1025.6
20260505153304 12 207 0.0 1.6 0.00 0.00 0.00 84 1025.7
20260505153143 12 207 0.0 1.6 0.00 0.00 0.00 84 1025.7
20260505152904 12 207 0.0 1.6 0.00 0.00 0.00 85 1025.7
20260505152700 12 207 0.0 1.6 0.00 0.00 0.00 84 1025.7
20260505152500 12 207 0.0 1.6 0.00 0.00 0.00 85 1025.6
20260505152259 12 207 0.0 1.6 0.00 0.00 0.00 85 1025.6
20260505152100 12 207 0.0 0.0 0.00 0.00 0.00 84 1025.7
20260505151900 12 207 0.0 0.0 0.00 0.00 0.00 84 1025.6
20260505151658 12 207 0.0 0.0 0.00 0.00 0.00 84 1025.6
20260505151458 12 207 0.0 0.0 0.00 0.00 0.00 84 1025.7
20260505151257 12 207 0.0 0.0 0.00 0.00 0.00 84 1025.6
20260505151057 12 207 0.0 0.0 0.00 0.00 0.00 83 1025.6
20260505150856 12 207 0.0 0.0 0.00 0.00 0.00 83 1025.6
20260505150656 12 207 0.0 0.0 0.00 0.00 0.00 83 1025.6
20260505150455 12 207 0.0 0.0 0.00 0.00 0.00 83 1025.6
20260505150255 12 207 0.0 0.0 0.00 0.00 0.00 83 1025.6
20260505140650 13 207 0.0 0.0 0.00 0.00 0.00 80 1025.7
20260505140450 13 207 0.0 0.0 0.00 0.00 0.00 80 1025.7
20260505140250 13 207 0.0 0.0 0.00 0.00 0.00 80 1025.8
20260505130244 14 207 0.0 0.0 0.00 0.00 0.00 79 1025.6
20260505125041 15 207 0.0 0.0 0.00 0.00 0.00 79 1025.6
20260505124840 15 207 0.0 0.0 0.00 0.00 0.00 78 1025.7
20260505124641 15 207 0.0 0.0 0.00 0.00 0.00 78 1025.6
20260505124440 15 207 0.0 0.0 0.00 0.00 0.00 78 1025.6
20260505124236 15 207 0.0 0.0 0.00 0.00 0.00 78 1025.6
20260505124035 15 207 0.0 0.0 0.00 0.00 0.00 78 1025.6
20260505123835 15 207 0.0 0.0 0.00 0.00 0.00 78 1025.6
20260505123635 15 207 0.0 0.0 0.00 0.00 0.00 78 1025.6
20260505123434 15 207 0.0 0.0 0.00 0.00 0.00 78 1025.5
20260505123234 15 207 0.0 0.0 0.00 0.00 0.00 78 1025.5
20260505123034 15 207 0.0 0.0 0.00 0.00 0.00 78 1025.6
20260505122833 15 207 0.0 0.0 0.00 0.00 0.00 78 1025.6
20260505122633 15 207 0.0 0.0 0.00 0.00 0.00 78 1025.6
20260505122432 15 207 0.0 0.0 0.00 0.00 0.00 78 1025.6
20260505122232 15 207 0.0 0.0 0.00 0.00 0.00 77 1025.5
20260505122031 15 207 0.0 0.0 0.00 0.00 0.00 77 1025.5
20260505121832 15 207 0.0 0.0 0.00 0.00 0.00 77 1025.5
20260505121631 15 207 0.0 0.0 0.00 0.00 0.00 77 1025.5
20260505121432 16 207 0.0 0.0 0.00 0.00 0.00 77 1025.5
20260505121230 16 207 0.0 0.0 0.00 0.00 0.00 77 1025.5
20260505121031 16 207 0.0 0.0 0.00 0.00 0.00 77 1025.4
20260505120831 16 207 0.0 0.0 0.00 0.00 0.00 77 1025.5
20260505120631 16 207 0.0 0.0 0.00 0.00 0.00 77 1025.4
20260505120431 16 207 0.0 0.0 0.00 0.00 0.00 77 1025.4
20260505120227 16 207 0.0 0.0 0.00 0.00 0.00 77 1025.4
20260505120028 16 207 0.0 0.0 0.00 0.00 0.00 77 1025.5
20260505115827 16 207 0.0 0.0 0.00 0.00 0.00 77 1025.4
20260505115626 16 207 0.0 0.0 0.00 0.00 0.00 77 1025.4
20260505115426 16 207 0.0 0.0 0.00 0.00 0.00 77 1025.4
20260505115225 16 207 0.0 0.0 0.00 0.00 0.00 77 1025.4
20260505115026 16 207 0.0 0.0 0.00 0.00 0.00 77 1025.4
20260505114825 16 207 0.0 0.0 0.00 0.00 0.00 77 1025.5
20260505114624 16 207 0.0 0.0 0.00 0.00 0.00 76 1025.4
20260505114423 16 207 0.0 0.0 0.00 0.00 0.00 77 1025.5
20260505114224 16 207 0.0 0.0 0.00 0.00 0.00 76 1025.4
20260505114024 16 207 0.0 0.0 0.00 0.00 0.00 76 1025.5
20260505113823 16 207 0.0 0.0 0.00 0.00 0.00 76 1025.4
20260505113622 16 207 0.0 1.6 0.00 0.00 0.00 76 1025.4
20260505113421 16 207 0.0 1.6 0.00 0.00 0.00 76 1025.4
20260505113221 16 207 0.0 1.6 0.00 0.00 0.00 75 1025.3
20260505113021 16 207 0.0 1.6 0.00 0.00 0.00 75 1025.4
20260505112820 16 207 0.0 1.6 0.00 0.00 0.00 75 1025.4
20260505112620 16 207 0.0 1.6 0.00 0.00 0.00 75 1025.4
20260505112417 17 207 0.0 1.6 0.00 0.00 0.00 75 1025.4
20260505112217 17 207 0.0 1.6 0.00 0.00 0.00 75 1025.3
20260505112015 17 207 0.0 1.6 0.00 0.00 0.00 75 1025.4
20260505111815 17 207 0.0 1.6 0.00 0.00 0.00 74 1025.4
20260505111615 17 207 0.0 1.6 0.00 0.00 0.00 74 1025.3
20260505111415 17 207 0.0 0.0 0.00 0.00 0.00 75 1025.3
20260505111214 17 207 0.0 0.0 0.00 0.00 0.00 75 1025.4
20260505111013 17 207 0.0 0.0 0.00 0.00 0.00 75 1025.3
20260505110813 17 207 0.0 0.0 0.00 0.00 0.00 74 1025.3
20260505110613 17 207 0.0 0.0 0.00 0.00 0.00 74 1025.3
20260505110412 17 207 0.0 0.0 0.00 0.00 0.00 74 1025.3
20260505110211 17 207 0.0 1.6 0.00 0.00 0.00 74 1025.3
20260505102202 18 207 0.0 1.6 0.00 0.00 0.00 71 1024.7
20260505102004 18 207 0.0 1.6 0.00 0.00 0.00 71 1024.7
20260505101802 18 207 0.0 3.2 0.00 0.00 0.00 71 1024.7
20260505101602 18 207 0.0 6.4 0.00 0.00 0.00 71 1024.7
20260505101402 18 207 0.0 6.4 0.00 0.00 0.00 71 1024.7
20260505101202 18 207 0.0 6.4 0.00 0.00 0.00 71 1024.7
20260505101001 18 207 0.0 6.4 0.00 0.00 0.00 70 1024.7
20260505100802 18 207 1.6 6.4 0.00 0.00 0.00 70 1024.6
20260505100602 18 207 1.6 6.4 0.00 0.00 0.00 70 1024.6
20260505100402 18 207 0.0 6.4 0.00 0.00 0.00 70 1024.6
20260505100202 18 207 0.0 6.4 0.00 0.00 0.00 70 1024.6
20260505100003 18 207 1.6 6.4 0.00 0.00 0.00 69 1024.6
20260505095802 18 207 3.2 6.4 0.00 0.00 0.00 69 1024.6
20260505095602 18 206 4.8 11.3 0.00 0.00 0.00 68 1024.6
20260505095402 18 193 1.6 11.3 0.00 0.00 0.00 68 1024.5
20260505095203 18 193 0.0 11.3 0.00 0.00 0.00 68 1024.6
20260505095003 18 193 0.0 11.3 0.00 0.00 0.00 67 1024.5
20260505094805 19 193 1.6 11.3 0.00 0.00 0.00 67 1024.5
20260505094602 19 221 1.6 9.7 0.00 0.00 0.00 67 1024.5
20260505094402 19 218 3.2 9.7 0.00 0.00 0.00 67 1024.5
20260505094202 19 217 4.8 9.7 0.00 0.00 0.00 68 1024.5
20260505094003 19 217 3.2 11.3 0.00 0.00 0.00 67 1024.5
20260505093803 19 213 4.8 11.3 0.00 0.00 0.00 67 1024.4
20260505093602 19 213 3.2 11.3 0.00 0.00 0.00 67 1024.4
20260505093402 19 213 6.4 11.3 0.00 0.00 0.00 67 1024.4
20260505093202 19 213 4.8 11.3 0.00 0.00 0.00 67 1024.4
20260505093003 19 228 4.8 11.3 0.00 0.00 0.00 66 1024.4
20260505092803 19 189 4.8 11.3 0.00 0.00 0.00 66 1024.4
20260505092602 20 207 3.2 11.3 0.00 0.00 0.00 66 1024.4
20260505092403 20 179 3.2 11.3 0.00 0.00 0.00 66 1024.4
20260505092202 20 211 3.2 11.3 0.00 0.00 0.00 67 1024.4
20260505092002 20 211 6.4 11.3 0.00 0.00 0.00 67 1024.3
20260505091802 20 218 4.8 9.7 0.00 0.00 0.00 67 1024.3
20260505091602 20 216 4.8 14.5 0.00 0.00 0.00 67 1024.3
20260505091400 20 213 4.8 14.5 0.00 0.00 0.00 66 1024.3
20260505091159 20 209 4.8 14.5 0.00 0.00 0.00 66 1024.3
20260505090958 20 221 3.2 14.5 0.00 0.00 0.00 66 1024.2
20260505090758 20 220 8.0 16.1 0.00 0.00 0.00 65 1024.3
20260505090558 20 209 4.8 16.1 0.00 0.00 0.00 65 1024.3
20260505090358 20 209 6.4 16.1 0.00 0.00 0.00 65 1024.2
20260505090157 20 210 8.0 16.1 0.00 0.00 0.00 65 1024.2
20260505085957 20 230 9.7 16.1 0.00 0.00 0.00 65 1024.1
20260505085756 20 223 4.8 16.1 0.00 0.00 0.00 64 1024.2
20260505085556 20 207 3.2 17.7 0.00 0.00 0.00 64 1024.2
20260505085355 20 211 4.8 17.7 0.00 0.00 0.00 64 1024.2
20260505085154 20 214 6.4 17.7 0.00 0.00 0.00 64 1024.2
20260505084954 20 197 4.8 17.7 0.00 0.00 0.00 64 1024.1
20260505084754 20 206 6.4 17.7 0.00 0.00 0.00 64 1024.1
20260505084554 20 213 6.4 17.7 0.00 0.00 0.00 63 1024.2
20260505084353 20 211 8.0 17.7 0.00 0.00 0.00 63 1024.2
20260505084152 20 207 6.4 17.7 0.00 0.00 0.00 63 1024.1
20260505083953 21 152 8.0 17.7 0.00 0.00 0.00 64 1024.1
20260505083751 21 216 8.0 14.5 0.00 0.00 0.00 63 1024.1
20260505083545 21 209 8.0 14.5 0.00 0.00 0.00 63 1024.0
20260505083346 21 209 8.0 17.7 0.00 0.00 0.00 63 1024.1
20260505083139 21 163 8.0 17.7 0.00 0.00 0.00 63 1024.0
20260505082941 21 207 6.4 17.7 0.00 0.00 0.00 63 1024.0
20260505082738 21 220 9.7 17.7 0.00 0.00 0.00 62 1024.1
20260505082535 21 210 9.7 17.7 0.00 0.00 0.00 62 1024.1
20260505082334 21 225 8.0 19.3 0.00 0.00 0.00 62 1024.1
20260505082134 21 220 3.2 19.3 0.00 0.00 0.00 62 1024.0
20260505081933 21 217 9.7 19.3 0.00 0.00 0.00 61 1024.1
20260505081734 21 213 9.7 19.3 0.00 0.00 0.00 61 1024.1
20260505081531 21 238 11.3 20.9 0.00 0.00 0.00 61 1024.1
20260505081331 21 163 6.4 20.9 0.00 0.00 0.00 61 1024.1
20260505081131 21 206 4.8 20.9 0.00 0.00 0.00 61 1024.1
20260505080933 21 210 9.7 20.9 0.00 0.00 0.00 60 1024.0
20260505080732 21 224 9.7 20.9 0.00 0.00 0.00 58 1024.0
20260505080530 21 220 9.7 19.3 0.00 0.00 0.00 58 1024.0
20260505080331 21 237 9.7 19.3 0.00 0.00 0.00 58 1024.0
20260505080131 21 207 11.3 19.3 0.00 0.00 0.00 58 1024.0
20260505075931 21 223 11.3 19.3 0.00 0.00 0.00 59 1023.9
20260505075732 22 209 9.7 17.7 0.00 0.00 0.00 58 1023.9
20260505075532 22 217 11.3 17.7 0.00 0.00 0.00 58 1024.0
20260505075331 22 228 8.0 17.7 0.00 0.00 0.00 60 1024.0
20260505075131 22 213 9.7 17.7 0.00 0.00 0.00 60 1023.9
20260505074931 22 224 9.7 17.7 0.00 0.00 0.00 60 1023.9
20260505074731 22 231 9.7 17.7 0.00 0.00 0.00 60 1023.9
20260505074531 22 252 4.8 17.7 0.00 0.00 0.00 60 1023.9
20260505074331 22 207 6.4 17.7 0.00 0.00 0.00 60 1023.8
20260505074131 22 210 4.8 17.7 0.00 0.00 0.00 60 1023.9
20260505073931 22 218 8.0 17.7 0.00 0.00 0.00 59 1023.9
20260505073731 22 230 6.4 16.1 0.00 0.00 0.00 59 1023.9
20260505073531 22 224 8.0 16.1 0.00 0.00 0.00 58 1023.9
20260505073331 22 214 8.0 16.1 0.00 0.00 0.00 58 1023.9
20260505073130 22 211 9.7 16.1 0.00 0.00 0.00 58 1023.8
20260505072931 22 216 9.7 16.1 0.00 0.00 0.00 58 1023.9
20260505072731 22 216 9.7 16.1 0.00 0.00 0.00 57 1023.9
20260505072531 22 218 9.7 16.1 0.00 0.00 0.00 56 1023.9
20260505072330 22 220 9.7 16.1 0.00 0.00 0.00 56 1023.8
20260505072126 22 213 8.0 16.1 0.00 0.00 0.00 57 1023.8
20260505071927 22 228 8.0 16.1 0.00 0.00 0.00 58 1023.8
20260505071726 22 225 8.0 16.1 0.00 0.00 0.00 58 1023.8
20260505071525 22 231 9.7 19.3 0.00 0.00 0.00 58 1023.8
20260505071325 22 216 9.7 19.3 0.00 0.00 0.00 57 1023.8
20260505071124 22 234 6.4 19.3 0.00 0.00 0.00 57 1023.8
20260505070925 23 225 9.7 19.3 0.00 0.00 0.00 56 1023.8
20260505070724 23 211 8.0 19.3 0.00 0.00 0.00 54 1023.8
20260505070523 23 221 9.7 17.7 0.00 0.00 0.00 53 1023.9
20260505070306 23 218 11.3 17.7 0.00 0.00 0.00 53 1023.8
20260505070104 23 220 8.0 17.7 0.00 0.00 0.00 53 1023.8
20260505065905 23 223 8.0 17.7 0.00 0.00 0.00 52 1023.8
20260505065706 23 203 9.7 17.7 0.00 0.00 0.00 51 1023.8
20260505065506 24 202 9.7 16.1 0.00 0.00 0.00 51 1023.9
20260505065305 24 217 4.8 19.3 0.00 0.00 0.00 52 1023.8
20260505065105 24 217 4.8 19.3 0.00 0.00 0.00 51 1023.7
20260505064905 25 213 6.4 19.3 0.00 0.00 0.00 50 1023.8
20260505064705 25 216 9.7 19.3 0.00 0.00 0.00 49 1023.9
20260505064505 25 217 9.7 19.3 0.00 0.00 0.00 48 1023.8
20260505064300 25 221 8.0 17.7 0.00 0.00 0.00 47 1023.8
20260505064101 25 241 3.2 14.5 0.00 0.00 0.00 46 1023.8
20260505063900 25 216 1.6 8.0 0.00 0.00 0.00 45 1023.8
20260505063659 25 216 1.6 8.0 0.00 0.00 0.00 44 1023.8
20260505063459 25 216 1.6 8.0 0.00 0.00 0.00 44 1023.8
20260505063258 25 216 4.8 8.0 0.00 0.00 0.00 43 1023.8
20260505063058 25 216 6.4 8.0 0.00 0.00 0.00 44 1023.8
20260505062857 25 216 1.6 6.4 0.00 0.00 0.00 45 1023.8
20260505062657 25 216 0.0 3.2 0.00 0.00 0.00 44 1023.8
20260505062457 25 216 1.6 3.2 0.00 0.00 0.00 44 1023.8
20260505062256 25 216 0.0 6.4 0.00 0.00 0.00 45 1023.9
20260505062056 25 216 0.0 8.0 0.00 0.00 0.00 44 1023.8
20260505061855 25 216 0.0 8.0 0.00 0.00 0.00 45 1023.8
20260505061655 25 216 0.0 8.0 0.00 0.00 0.00 45 1023.8
20260505061451 25 216 1.6 8.0 0.00 0.00 0.00 45 1023.8
20260505061252 25 217 1.6 8.0 0.00 0.00 0.00 45 1023.8
20260505061051 25 216 3.2 4.8 0.00 0.00 0.00 45 1023.7
20260505060850 25 216 1.6 4.8 0.00 0.00 0.00 45 1023.8
20260505060650 25 216 1.6 4.8 0.00 0.00 0.00 46 1023.9
20260505060450 25 217 1.6 6.4 0.00 0.00 0.00 46 1023.8
20260505060249 25 217 1.6 6.4 0.00 0.00 0.00 46 1023.9
20260505060049 25 218 1.6 6.4 0.00 0.00 0.00 46 1023.8
20260505055849 25 218 3.2 6.4 0.00 0.00 0.00 45 1023.8
20260505055647 25 218 3.2 6.4 0.00 0.00 0.00 45 1023.9
20260505055447 25 218 3.2 6.4 0.00 0.00 0.00 45 1023.9
20260505055247 25 218 0.0 8.0 0.00 0.00 0.00 46 1023.9
20260505055046 25 228 0.0 8.0 0.00 0.00 0.00 46 1023.9
20260505054846 25 228 0.0 8.0 0.00 0.00 0.00 46 1023.9
20260505054646 25 228 1.6 8.0 0.00 0.00 0.00 46 1024.0
20260505054445 25 228 4.8 8.0 0.00 0.00 0.00 44 1023.9
20260505054245 25 228 1.6 8.0 0.00 0.00 0.00 43 1023.9
20260505054045 25 228 4.8 8.0 0.00 0.00 0.00 43 1023.9
20260505053844 25 228 4.8 8.0 0.00 0.00 0.00 43 1023.9
20260505053640 25 187 3.2 6.4 0.00 0.00 0.00 43 1023.9
20260505053440 25 159 1.6 4.8 0.00 0.00 0.00 43 1024.0
20260505053241 25 148 1.6 4.8 0.00 0.00 0.00 45 1023.9
20260505053042 25 149 1.6 4.8 0.00 0.00 0.00 44 1024.0
20260505052842 25 149 1.6 4.8 0.00 0.00 0.00 44 1024.0
20260505052641 25 149 0.0 4.8 0.00 0.00 0.00 45 1024.0
20260505052441 25 152 1.6 4.8 0.00 0.00 0.00 46 1024.0
20260505052242 25 152 1.6 4.8 0.00 0.00 0.00 45 1024.0
20260505052041 25 152 1.6 4.8 0.00 0.00 0.00 44 1024.0
20260505051840 25 152 1.6 4.8 0.00 0.00 0.00 45 1024.1
20260505051641 25 152 1.6 6.4 0.00 0.00 0.00 46 1024.1
20260505051441 25 152 1.6 6.4 0.00 0.00 0.00 46 1024.1
20260505051240 25 148 0.0 6.4 0.00 0.00 0.00 46 1024.1
20260505051040 25 72 3.2 6.4 0.00 0.00 0.00 45 1024.2
20260505050837 25 73 3.2 6.4 0.00 0.00 0.00 47 1024.2
20260505050637 25 77 1.6 6.4 0.00 0.00 0.00 47 1024.2
20260505050436 25 84 1.6 4.8 0.00 0.00 0.00 47 1024.3
20260505050237 25 72 3.2 4.8 0.00 0.00 0.00 47 1024.3
20260505041617 23 39 3.2 6.4 0.00 0.00 0.00 50 1025.1
20260505041416 23 39 1.6 6.4 0.00 0.00 0.00 50 1025.1
20260505041216 23 39 1.6 6.4 0.00 0.00 0.00 51 1025.1
20260505041016 23 39 3.2 6.4 0.00 0.00 0.00 50 1025.2
20260505040815 23 39 3.2 6.4 0.00 0.00 0.00 50 1025.1
20260505040614 23 37 1.6 6.4 0.00 0.00 0.00 51 1025.2
20260505040415 23 37 3.2 6.4 0.00 0.00 0.00 50 1025.2
20260505040214 23 37 3.2 6.4 0.00 0.00 0.00 50 1025.2
20260505040015 23 37 3.2 6.4 0.00 0.00 0.00 50 1025.2
20260505035805 23 37 4.8 6.4 0.00 0.00 0.00 50 1025.2
20260505035605 23 34 3.2 8.0 0.00 0.00 0.00 50 1025.3
20260505035405 23 34 3.2 8.0 0.00 0.00 0.00 51 1025.3
20260505035205 23 34 3.2 8.0 0.00 0.00 0.00 50 1025.3
20260505035005 23 35 4.8 8.0 0.00 0.00 0.00 50 1025.3
20260505034806 23 35 4.8 8.0 0.00 0.00 0.00 51 1025.4
20260505034605 23 24 3.2 8.0 0.00 0.00 0.00 51 1025.3
20260505034405 23 15 3.2 4.8 0.00 0.00 0.00 52 1025.4
20260505034205 23 15 1.6 4.8 0.00 0.00 0.00 52 1025.4
20260505034005 23 15 1.6 4.8 0.00 0.00 0.00 53 1025.5
20260505033805 23 13 3.2 4.8 0.00 0.00 0.00 53 1025.5
20260505033605 23 13 3.2 4.8 0.00 0.00 0.00 53 1025.5
20260505033404 23 8 1.6 6.4 0.00 0.00 0.00 53 1025.5
20260505033205 23 8 1.6 8.0 0.00 0.00 0.00 53 1025.5
20260505033005 23 8 0.0 8.0 0.00 0.00 0.00 54 1025.5
20260505032755 23 8 1.6 8.0 0.00 0.00 0.00 53 1025.6
20260505032555 23 8 3.2 8.0 0.00 0.00 0.00 53 1025.6
20260505032355 22 8 4.8 8.0 0.00 0.00 0.00 53 1025.6
20260505032154 22 7 4.8 8.0 0.00 0.00 0.00 53 1025.6
20260505031953 22 61 3.2 6.4 0.00 0.00 0.00 54 1025.6
20260505031753 22 58 4.8 6.4 0.00 0.00 0.00 54 1025.7
20260505031553 22 61 3.2 6.4 0.00 0.00 0.00 54 1025.7
20260505031352 22 61 1.6 9.7 0.00 0.00 0.00 55 1025.7
20260505031151 22 62 3.2 9.7 0.00 0.00 0.00 55 1025.7
20260505030948 22 61 3.2 9.7 0.00 0.00 0.00 54 1025.7
20260505030748 22 63 3.2 9.7 0.00 0.00 0.00 55 1025.7
20260505030547 22 29 6.4 9.7 0.00 0.00 0.00 54 1025.7
20260505030346 22 68 6.4 9.7 0.00 0.00 0.00 54 1025.7
20260505030146 22 51 6.4 9.7 0.00 0.00 0.00 54 1025.7
20260505025946 22 52 3.2 9.7 0.00 0.00 0.00 54 1025.7
20260505025745 22 34 4.8 9.7 0.00 0.00 0.00 55 1025.8
20260505025545 22 32 4.8 9.7 0.00 0.00 0.00 55 1025.8
20260505025344 22 35 4.8 9.7 0.00 0.00 0.00 54 1025.8
20260505025144 22 55 3.2 8.0 0.00 0.00 0.00 54 1025.7
20260505024944 22 52 4.8 8.0 0.00 0.00 0.00 55 1025.8
20260505024744 22 46 3.2 6.4 0.00 0.00 0.00 56 1025.8
20260505024543 22 28 3.2 6.4 0.00 0.00 0.00 56 1025.8
20260505024342 22 27 3.2 6.4 0.00 0.00 0.00 57 1025.8
20260505024142 22 27 3.2 6.4 0.00 0.00 0.00 57 1025.8
20260505023941 22 27 3.2 8.0 0.00 0.00 0.00 57 1025.8
20260505023741 21 27 3.2 9.7 0.00 0.00 0.00 57 1025.8
20260505023541 21 28 1.6 9.7 0.00 0.00 0.00 58 1025.9
20260505023340 21 28 3.2 9.7 0.00 0.00 0.00 58 1025.9
20260505023137 21 31 3.2 9.7 0.00 0.00 0.00 58 1025.9
20260505022937 21 32 4.8 9.7 0.00 0.00 0.00 58 1026.0
20260505022736 21 330 3.2 8.0 0.00 0.00 0.00 59 1026.0
20260505022536 21 1 3.2 8.0 0.00 0.00 0.00 60 1025.9
20260505022336 21 1 4.8 8.0 0.00 0.00 0.00 60 1026.0
20260505022136 21 68 1.6 8.0 0.00 0.00 0.00 60 1026.0
20260505021936 20 68 3.2 8.0 0.00 0.00 0.00 60 1025.9
20260505021737 20 69 4.8 8.0 0.00 0.00 0.00 61 1026.0
20260505021534 20 25 3.2 8.0 0.00 0.00 0.00 61 1025.9
20260505021334 20 62 4.8 8.0 0.00 0.00 0.00 61 1026.0
20260505021134 20 61 4.8 8.0 0.00 0.00 0.00 61 1026.0
20260505020934 20 65 4.8 8.0 0.00 0.00 0.00 61 1026.0
20260505020734 20 27 4.8 9.7 0.00 0.00 0.00 61 1026.0
20260505020535 20 25 3.2 9.7 0.00 0.00 0.00 62 1026.0
20260505020334 20 24 4.8 9.7 0.00 0.00 0.00 62 1026.1
20260505020133 20 21 4.8 9.7 0.00 0.00 0.00 63 1026.0
20260505015933 20 14 4.8 9.7 0.00 0.00 0.00 64 1026.0
20260505015734 20 77 3.2 8.0 0.00 0.00 0.00 64 1026.0
20260505015534 19 7 3.2 8.0 0.00 0.00 0.00 65 1026.1
20260505015333 19 6 3.2 11.3 0.00 0.00 0.00 65 1026.0
20260505015133 19 6 4.8 11.3 0.00 0.00 0.00 65 1026.1
20260505014934 19 59 3.2 11.3 0.00 0.00 0.00 65 1026.0
20260505014735 18 59 6.4 11.3 0.00 0.00 0.00 66 1026.1
20260505014535 18 45 3.2 11.3 0.00 0.00 0.00 67 1026.0
20260505014335 18 46 3.2 9.7 0.00 0.00 0.00 67 1026.1
20260505014135 18 51 4.8 9.7 0.00 0.00 0.00 67 1026.1
20260505013936 18 69 4.8 9.7 0.00 0.00 0.00 67 1026.1
20260505013735 18 70 3.2 9.7 0.00 0.00 0.00 68 1026.1
20260505013535 18 58 4.8 9.7 0.00 0.00 0.00 68 1026.1
20260505013334 18 24 3.2 9.7 0.00 0.00 0.00 69 1026.1
20260505013131 17 45 3.2 8.0 0.00 0.00 0.00 70 1026.1
20260505012931 17 55 4.8 8.0 0.00 0.00 0.00 70 1026.2
20260505012731 17 69 4.8 8.0 0.00 0.00 0.00 70 1026.2
20260505012531 17 68 3.2 6.4 0.00 0.00 0.00 72 1026.2
20260505012331 17 69 3.2 9.7 0.00 0.00 0.00 72 1026.2
20260505012132 17 72 3.2 9.7 0.00 0.00 0.00 73 1026.2
20260505011930 16 73 3.2 9.7 0.00 0.00 0.00 73 1026.2
20260505011730 16 80 3.2 9.7 0.00 0.00 0.00 74 1026.2
20260505011531 16 80 4.8 9.7 0.00 0.00 0.00 75 1026.3
20260505011331 16 61 3.2 8.0 0.00 0.00 0.00 76 1026.2
20260505011131 16 56 3.2 8.0 0.00 0.00 0.00 76 1026.3
20260505010932 15 56 3.2 8.0 0.00 0.00 0.00 77 1026.2
20260505010731 15 58 3.2 8.0 0.00 0.00 0.00 78 1026.2
20260505010533 15 58 4.8 8.0 0.00 0.00 0.00 79 1026.2
20260505010329 15 69 3.2 6.4 0.00 0.00 0.00 79 1026.2
20260505010129 15 52 3.2 6.4 0.00 0.00 0.00 80 1026.3
20260505005929 15 63 4.8 6.4 0.00 0.00 0.00 81 1026.3
20260505005728 14 72 3.2 8.0 0.00 0.00 0.00 82 1026.2
20260505005527 14 69 3.2 9.7 0.00 0.00 0.00 82 1026.2
20260505005328 14 69 3.2 9.7 0.00 0.00 0.00 83 1026.2
20260505005126 13 69 3.2 9.7 0.00 0.00 0.00 83 1026.2
20260505004926 13 69 3.2 9.7 0.00 0.00 0.00 84 1026.2
20260505004726 13 58 3.2 9.7 0.00 0.00 0.00 84 1026.2
20260505004526 13 101 1.6 9.7 0.00 0.00 0.00 84 1026.2
20260505004313 13 101 3.2 9.7 0.00 0.00 0.00 85 1026.3
20260505004113 13 103 3.2 9.7 0.00 0.00 0.00 86 1026.2
20260505003913 13 58 3.2 6.4 0.00 0.00 0.00 86 1026.2
20260505003712 13 45 1.6 6.4 0.00 0.00 0.00 87 1026.2
20260505003511 13 45 1.6 6.4 0.00 0.00 0.00 87 1026.1
20260505003308 12 45 1.6 6.4 0.00 0.00 0.00 87 1026.1
20260505003108 12 45 3.2 8.0 0.00 0.00 0.00 88 1026.0
20260505002907 12 41 3.2 8.0 0.00 0.00 0.00 88 1026.0
20260505002708 12 55 3.2 8.0 0.00 0.00 0.00 89 1026.0
20260505002506 12 53 3.2 8.0 0.00 0.00 0.00 89 1025.9
20260505002306 12 62 6.4 8.0 0.00 0.00 0.00 89 1025.8
20260505002105 12 49 1.6 4.8 0.00 0.00 0.00 90 1025.8
20260505001905 12 44 1.6 4.8 0.00 0.00 0.00 90 1025.8
20260505001705 12 38 1.6 4.8 0.00 0.00 0.00 90 1025.6
20260505001505 11 38 3.2 4.8 0.00 0.00 0.00 90 1025.7
20260505001304 11 61 0.0 3.2 0.00 0.00 0.00 91 1025.6
20260505001107 11 61 1.6 3.2 0.00 0.00 0.00 91 1025.6
20260505000905 11 61 1.6 4.8 0.00 0.00 0.00 91 1025.5
20260505000707 11 61 1.6 4.8 0.00 0.00 0.00 91 1025.6
20260505000506 11 61 0.0 4.8 0.00 0.00 0.00 91 1025.6
20260505000302 11 61 0.0 4.8 0.00 0.00 0.00 91 1025.7
20260504235901 11 62 0.0 3.2 0.00 0.00 0.00 91 1025.6
20260504235700 11 62 1.6 3.2 0.00 0.00 0.00 91 1025.6
20260504235458 11 55 0.0 3.2 0.00 0.00 0.00 90 1025.6
20260504235256 10 55 0.0 3.2 0.00 0.00 0.00 90 1025.6
20260504235056 10 55 0.0 3.2 0.00 0.00 0.00 90 1025.6
20260504234856 10 55 0.0 3.2 0.00 0.00 0.00 90 1025.6
20260504234655 10 55 0.0 0.0 0.00 0.00 0.00 90 1025.6
20260504234455 10 55 0.0 0.0 0.00 0.00 0.00 90 1025.5
20260504234254 10 55 0.0 0.0 0.00 0.00 0.00 90 1025.5
20260504234054 10 55 0.0 0.0 0.00 0.00 0.00 90 1025.4
20260504233853 10 55 0.0 0.0 0.00 0.00 0.00 89 1025.5
20260504233653 10 55 0.0 0.0 0.00 0.00 0.00 89 1025.5
20260504233453 10 55 0.0 0.0 0.00 0.00 0.00 89 1025.4
20260504233252 10 55 0.0 0.0 0.00 0.00 0.00 89 1025.4
20260504233052 10 56 0.0 0.0 0.00 0.00 0.00 89 1025.4
20260504232852 10 55 0.0 0.0 0.00 0.00 0.00 89 1025.3
20260504232652 10 56 0.0 0.0 0.00 0.00 0.00 88 1025.3
20260504232450 10 56 0.0 0.0 0.00 0.00 0.00 88 1025.3
20260504232250 10 56 0.0 0.0 0.00 0.00 0.00 88 1025.3
20260504232049 10 55 0.0 0.0 0.00 0.00 0.00 88 1025.2
20260504231849 10 56 0.0 0.0 0.00 0.00 0.00 88 1025.2
20260504231645 10 56 0.0 0.0 0.00 0.00 0.00 88 1025.2
20260504231445 10 56 0.0 0.0 0.00 0.00 0.00 88 1025.2
20260504231245 10 56 0.0 0.0 0.00 0.00 0.00 88 1025.2
20260504231044 10 56 0.0 0.0 0.00 0.00 0.00 87 1025.1
20260504230844 10 56 0.0 0.0 0.00 0.00 0.00 88 1025.1
20260504230643 10 56 0.0 0.0 0.00 0.00 0.00 87 1025.1
20260504230443 10 56 0.0 0.0 0.00 0.00 0.00 88 1025.1
20260504230242 10 56 0.0 0.0 0.00 0.00 0.00 88 1025.1